Content
SEND FEEDBACK

Daily
Averages
Monthly
Summary
India

AHMEDABAD, INDIA


Home > Asia > India
Elevation: 180 feet     Latitude: 23 04N     Longitude: 072 38E

WEATHER
 
SELECT A DAY
Number of Records: 216,187;   Date Range: 7/1/96 - 11/23/14
 
SHARE

PRINT THIS DATA

[ ← Previous Day ]
WEATHER ALMANAC - APRIL 25, 2014
[ Next Day → ]
[ °C ]   °F
Weather ElementAverageHighLow
Temperature93.6 °F107.6 °F (4:10 pm)82 °F (5:30 am)
Dewpoint56.4 °F64.4 °F (9:40 am)48.2 °F (2:40 am)
Humidity28.1 %41 % (9:40 am)16 % (5:30 pm)
Barometer29.76 in29.83 in (9:10 am)29.68 in (4:10 pm)
Wind Speed4.8 mph9.2 mph (9:40 am)
Weather ElementAverage
Visibility3.1 mi
Wind DirectionWSW (254.7 °)

Weather ElementTotal
Precipitation---
Cooling Degree Days29.8 (Base 65)
Growing Degree Days44.8 (Base 50)
Averaged from 44 records on April 25, 2014
WEATHER CONDITIONS BREAKOUT
WIND DIRECTION BREAKOUT
WEATHER BY HOUR - APRIL 25, 2014
[ °C ]   °F
Local TimeTemperatureDewpointHumidityBarometerVisibilityWind DirectionWind SpeedGust SpeedPrecipitationEventsConditions
1:40 AM87.8 °F51.8 °F29 %29.71 in2.5 miCalmSmoke
2:30 AM86.0 °F52.0 °F21 %29.75 in2.0 miSW (230°)2.3 mphClear
2:40 AM86.0 °F48.2 °F27 %29.71 in2.5 miWest (270°)4.6 mphSmoke
3:10 AM87.8 °F48.2 °F25 %29.71 in2.5 miWest (270°)4.6 mphSmoke
3:40 AM86.0 °F51.8 °F31 %29.74 in2.5 miWest (260°)6.9 mphSmoke
4:10 AM86.0 °F51.8 °F31 %29.74 in2.5 miWest (270°)5.8 mphSmoke
4:40 AM84.2 °F53.6 °F35 %29.74 in2.5 miWNW (290°)4.6 mphSmoke
5:10 AM84.2 °F53.6 °F35 %29.74 in2.5 miWest (280°)5.8 mphSmoke
5:30 AM82.0 °F56.0 °F31 %29.78 in2.0 miSW (230°)2.3 mphClear
5:40 AM82.4 °F51.8 °F35 %29.77 in2.5 miWest (270°)5.8 mphSmoke
6:10 AM82.4 °F53.6 °F37 %29.77 in2.5 miWNW (290°)4.6 mphSmoke
6:40 AM82.4 °F53.6 °F37 %29.80 in2.2 miWNW (290°)4.6 mphSmoke
7:40 AM82.4 °F53.6 °F37 %29.80 in1.9 miNW (310°)5.8 mphSmoke
8:10 AM84.2 °F55.4 °F37 %29.80 in2.5 miWNW (290°)6.9 mphSmoke
8:30 AM86.0 °F62.0 °F34 %29.82 in2.0 miNW (320°)4.6 mphClear
9:10 AM89.6 °F62.6 °F40 %29.83 in3.1 miNorth (350°)6.9 mphSmoke
9:40 AM91.4 °F64.4 °F41 %29.83 in3.1 miNorth (10°)9.2 mphSmoke
10:10 AM93.2 °F64.4 °F38 %29.83 in3.1 miNorth (10°)9.2 mphSmoke
10:40 AM96.8 °F62.6 °F32 %29.83 in3.7 miNorth (10°)6.9 mph
11:10 AM98.6 °F62.6 °F30 %29.83 in3.7 miNorth (350°)6.9 mph
11:30 AM97.0 °F62.0 °F22 %29.83 in2.0 miNNW (340°)4.6 mphClear
11:40 AM100.4 °F60.8 °F27 %29.83 in3.7 miNW (320°)6.9 mph
12:10 PM102.2 °F59.0 °F24 %29.83 in3.7 miNorth (350°)9.2 mph
1:10 PM104.0 °F57.2 °F21 %29.77 in3.7 miNW (310°)6.9 mph
1:40 PM104.0 °F57.2 °F21 %29.77 in3.7 miNNW (340°)8.1 mph
2:30 PM102.0 °F61.0 °F17 %29.76 in2.0 miNW (320°)3.5 mphClear
2:40 PM105.8 °F57.2 °F20 %29.74 in5.0 miWest (270°)6.9 mph
3:40 PM105.8 °F53.6 °F18 %29.71 in5.0 miWest (280°)6.9 mph
4:10 PM107.6 °F53.6 °F17 %29.68 in5.0 miNW (320°)5.8 mph
4:40 PM107.6 °F53.6 °F17 %29.68 in5.0 miNNW (330°)5.8 mph
5:10 PM107.6 °F53.6 °F17 %29.68 in5.0 miNW (320°)4.6 mph
5:30 PM103.0 °F60.0 °F16 %29.71 in2.0 miNW (320°)3.5 mphClear
5:40 PM105.8 °F53.6 °F18 %29.68 in5.0 miNorth (350°)4.6 mph
6:10 PM105.8 °F51.8 °F17 %29.68 in5.0 miNNW (340°)3.5 mph
6:40 PM104.0 °F55.4 °F20 %29.68 in3.7 miNorth (360°)2.3 mph
7:40 PM96.8 °F57.2 °F27 %29.71 in3.1 miCalmSmoke
8:10 PM95.0 °F55.4 °F26 %29.71 in3.1 miCalmSmoke
8:30 PM88.0 °F64.0 °F35 %29.74 in2.0 miCalm
8:40 PM93.2 °F59.0 °F32 %29.74 in3.1 miCalmSmoke
9:40 PM91.4 °F59.0 °F34 %29.74 in2.5 miWSW (250°)3.5 mphSmoke
10:10 PM87.8 °F59.0 °F38 %29.77 in2.5 miWNW (290°)3.5 mphSmoke
10:40 PM87.8 °F59.0 °F38 %29.77 in2.5 miWNW (290°)3.5 mphSmoke
11:30 PM87.0 °F55.0 °F24 %29.79 in2.0 miNW (320°)2.3 mph
11:44 PM89.6 °F50.0 °F26 %29.77 in2.5 miNNW (330°)5.8 mphSmoke
Hourly data recorded from VAAH, located miles away from Ahmedabad, India







STORIES FROM OUR PARTNERS